Wind_Speed
6 6 6 6 6 6 7 6 5 4 3 4 4 4 5 6 6 7 8 7 8 8 8 8 8 8 7 7 6 7 7 6 6 6 6 6 6 6 6 6 6 5 5
6 7 7 8 7 8 8 8 6 4 4 4 4 4 4 5 6 7 8 9 8 8 8 8 9 9 8 8 9 8 8 8 8 8 7 8 8 8 8 8 8 8 8
8 8 8 8 9 9 10 9 8 7 6 6 7 7 6 6 7 7 8 9 9 10 9 9 9 10 10 10 10 10 10 10 10 9 10 10 10 10 11 11 10 10 10
10 10 10 10 10 11 11 11 10 8 8 8 9 9 8 7 7 7 8 8 9 9 9 8 9 10 10 10 10 11 11 12 12 12 12 12 12 13 13 13 13 13 12
12 12 12 12 12 13 12 12 11 10 10 10 9 9 9 9 8 8 9 10 9 9 9 9 9 9 10 11 11 11 11 12 13 13 14 14 14 14 15 15 15 15 15
14 14 14 14 14 14 13 13 12 12 11 11 10 10 10 11 10 9 10 11 11 10 10 10 10 10 11 12 12 12 13 13 14 14 15 15 16 16 16 16 16 17 17
15 15 14 14 14 14 14 13 12 12 11 12 12 12 11 11 11 11 11 12 12 12 11 11 11 11 12 12 13 14 14 15 15 16 16 16 17 17 17 18 18 19 19
15 15 15 14 14 14 13 12 12 13 12 13 13 13 13 12 12 13 12 12 13 13 13 13 13 13 13 13 14 15 15 15 16 17 17 17 18 18 18 19 19 20 20
16 16 16 14 14 14 13 13 14 14 13 13 13 13 13 12 12 12 12 12 12 13 13 14 14 14 15 15 15 15 16 17 17 18 18 19 19 19 19 20 20 21 21
16 16 16 15 15 14 14 15 16 15 15 14 14 13 14 14 13 13 13 13 14 14 13 13 14 14 15 16 16 16 16 17 18 18 19 20 20 20 21 21 21 22 22
17 17 17 16 16 16 15 16 16 14 15 15 15 14 14 14 14 14 14 14 15 14 14 14 14 15 16 16 16 17 18 18 19 20 20 21 22 22 23 23 23 23 23
17 17 17 17 17 17 16 16 16 15 15 15 15 15 15 15 14 14 14 14 15 16 15 15 16 16 16 16 17 18 19 19 20 20 21 22 22 22 23 23 23 23 24
17 17 17 17 17 16 16 16 16 16 15 15 15 15 15 15 14 14 14 14 15 15 16 16 17 17 17 18 18 19 20 19 19 20 20 21 22 22 22 22 23 23 24
17 17 16 16 16 16 16 16 16 15 15 14 14 14 15 14 13 13 14 14 14 14 16 16 16 17 18 19 19 20 20 20 20 20 21 21 22 22 22 22 23 23 24
17 16 15 14 15 15 15 15 15 14 14 13 14 14 13 14 14 14 14 14 14 15 16 16 17 18 18 19 19 20 20 20 20 20 21 21 21 21 21 22 23 24 25
16 15 15 15 14 14 13 13 13 13 13 14 13 13 14 14 14 14 14 14 15 16 16 17 17 18 18 19 19 20 21 21 21 22 22 22 22 22 22 24 24 26 26
16 16 16 15 14 13 13 12 13 14 14 14 15 15 15 15 15 14 14 14 15 16 17 18 19 19 19 19 20 21 21 22 23 23 23 23 24 24 24 25 25 25 26
17 17 15 15 14 14 13 13 13 14 15 15 15 16 16 16 16 16 15 15 16 17 18 18 19 20 20 21 22 22 23 23 23 23 23 23 24 25 25 25 24 25 26
18 17 16 16 15 15 14 13 13 14 15 15 16 16 17 16 16 16 16 16 16 16 17 18 19 19 19 21 22 23 23 23 22 23 23 23 24 25 25 25 26 26 27
19 18 17 17 16 16 16 15 15 14 15 16 16 16 16 16 16 16 17 17 17 17 17 18 19 20 21 21 22 22 22 22 22 23 23 24 25 25 25 26 27 27 28
19 18 17 16 16 16 15 16 16 16 16 16 16 17 17 17 16 17 17 17 17 18 17 18 19 20 22 22 22 23 23 23 23 23 24 25 25 25 26 27 28 29 29
19 19 18 18 18 17 17 17 17 16 17 16 16 17 17 17 17 18 18 18 18 18 19 19 20 20 21 21 22 23 23 24 24 24 24 26 27 27 27 28 28 29 30
21 21 20 19 19 19 18 18 18 17 17 18 18 19 19 18 18 19 18 18 18 19 20 20 21 21 22 22 22 23 24 24 25 25 26 27 27 27 28 28 29 30 31
22 22 21 20 20 19 19 19 18 18 19 20 20 20 20 19 19 19 19 19 20 20 21 21 22 22 22 23 23 24 24 25 25 25 25 26 27 28 28 29 30 30 31
23 22 21 20 20 20 20 19 19 19 20 20 21 20 20 21 20 20 20 20 21 22 22 22 22 22 23 23 23 24 25 25 25 25 26 27 27 28 29 30 30 31 32
23 23 23 22 21 21 20 19 19 19 20 20 20 20 20 21 21 21 21 22 22 22 22 22 23 23 23 23 24 24 24 24 25 26 27 27 28 28 29 30 31 31 32
Wind_Direction
308 312 321 326 326 331 331 324 324 325 324 318 296 276 257 247 244 244 246 244 243 244 245 244 243 245 247 243 240 241 240 241 244 249 257 266 268 267 267 274 279 284 289
292 299 303 312 316 319 320 320 321 323 329 324 308 291 279 253 249 248 250 250 249 248 250 248 247 247 248 248 248 247 247 247 249 253 259 266 268 268 269 275 277 278 282
282 289 293 298 302 303 307 312 311 308 310 312 306 293 279 269 259 256 258 260 258 256 259 254 250 248 249 251 252 252 254 254 254 258 262 266 269 270 271 274 276 277 280
279 285 291 295 295 296 297 303 301 296 298 298 297 293 282 277 277 269 270 269 269 262 256 254 249 248 248 250 252 255 255 257 259 263 266 268 270 271 272 273 273 275 277
275 280 285 289 291 293 292 295 294 291 292 289 288 289 283 282 280 279 270 267 266 260 261 261 255 252 252 252 255 257 257 259 261 264 267 268 270 271 270 272 273 274 274
272 278 280 283 287 290 290 290 289 288 284 283 285 283 281 283 285 289 275 268 264 261 263 265 261 260 259 256 255 259 262 264 265 266 267 268 270 272 271 271 271 273 274
267 275 278 280 284 287 285 283 281 283 282 282 282 279 280 282 283 286 279 270 263 262 265 264 265 265 263 262 262 265 267 267 269 268 268 269 271 272 271 271 271 273 274
265 270 273 277 280 283 282 281 281 280 279 278 282 279 280 279 282 281 277 275 266 263 265 265 266 266 267 268 265 268 269 270 269 269 269 270 270 270 272 272 272 272 273
263 268 269 271 275 279 280 282 287 280 276 274 277 281 278 281 283 283 278 273 269 266 265 269 267 266 266 268 269 270 271 273 271 270 269 272 272 271 272 273 273 273 275
260 264 266 269 271 275 280 281 282 281 274 273 274 279 276 281 282 281 278 274 270 267 265 269 271 271 271 270 270 272 275 276 273 271 271 271 274 275 274 272 273 274 275
258 260 262 265 268 272 277 280 278 278 276 274 272 274 275 278 282 281 279 272 267 267 268 272 274 274 272 271 273 274 277 277 276 275 274 275 276 276 275 274 274 274 274
254 257 258 262 267 271 273 276 276 274 274 273 269 270 274 278 278 278 278 273 266 265 268 269 271 273 275 275 274 274 278 279 278 278 278 278 278 277 275 275 275 276 277
252 256 258 260 265 267 270 271 271 269 269 268 266 268 272 275 275 276 276 274 268 265 267 269 271 271 274 275 275 276 278 277 278 279 279 280 279 278 279 279 277 278 279
251 256 257 258 260 262 266 267 268 265 265 266 265 267 272 272 275 276 277 275 271 268 268 270 271 273 275 275 275 276 276 277 279 279 278 281 281 281 281 280 279 280 283
250 253 251 254 258 262 265 265 263 260 261 264 266 267 269 273 275 276 275 275 274 277 274 272 273 276 277 276 275 276 275 278 280 280 280 280 281 282 284 285 285 284 284
248 250 251 255 260 262 261 259 258 259 260 264 266 268 270 274 278 277 277 276 276 276 276 274 275 277 277 277 277 278 278 279 280 281 282 281 283 285 287 287 286 286 286
246 249 250 253 259 260 256 259 260 261 262 265 267 272 273 275 279 279 279 276 276 275 276 276 275 275 277 278 279 280 280 280 280 281 281 282 284 285 287 286 286 287 287
243 245 248 252 257 261 261 261 261 259 261 265 269 274 276 278 281 278 279 278 277 276 277 277 276 276 276 278 279 279 280 280 280 282 285 286 286 287 289 288 288 289 289
239 243 247 249 253 258 260 261 263 262 264 268 272 274 275 276 280 279 278 279 281 281 281 280 278 279 279 281 282 282 282 282 282 282 284 285 287 288 288 287 289 289 290
238 241 244 246 252 260 260 257 261 265 268 271 272 273 274 278 280 280 281 279 280 283 285 285 282 281 280 281 282 283 284 286 288 288 288 290 289 288 289 291 291 292 293
238 241 242 246 252 257 259 259 261 265 268 272 274 275 276 276 279 282 285 283 282 284 286 288 288 285 283 283 284 285 287 288 290 290 291 291 291 291 292 294 295 295 295
238 241 245 249 254 257 259 261 263 263 266 270 274 275 276 277 279 282 285 285 286 286 287 288 289 289 287 286 287 289 289 289 289 290 289 290 292 292 294 295 296 297 297
240 243 247 251 254 257 257 260 260 262 265 269 273 275 277 278 280 283 285 286 287 289 289 290 292 292 290 288 288 288 287 288 289 290 290 292 292 293 294 295 296 297 297
242 245 247 251 253 255 255 258 262 263 265 270 274 275 278 279 281 283 285 287 288 288 290 291 291 290 289 289 290 290 291 291 291 291 292 292 294 295 296 297 298 298 298
245 245 248 250 251 253 257 260 262 264 266 270 273 275 277 279 279 281 284 286 287 289 290 291 291 291 291 292 293 293 293 293 292 292 293 295 296 297 297 298 299 300 300
245 248 250 252 251 252 256 258 261 264 268 271 273 275 276 278 279 282 285 287 288 289 290 292 292 292 293 294 295 294 294 294 294 294 295 296 297 298 299 300 301 302 302
Height
5918 5918 5917 5916 5915 5914 5913 5912 5911 5910 5910 5909 5909 5908 5908 5908 5908 5909 5909 5909 5910 5911 5911 5912 5912 5913 5913 5914 5914 5914 5915 5915 5915 5915 5916 5916 5915 5915 5915 5915 5915 5914 5914
5917 5917 5916 5915 5914 5913 5912 5911 5910 5909 5909 5908 5908 5907 5907 5907 5907 5907 5908 5908 5908 5909 5909 5910 5911 5911 5912 5912 5913 5913 5913 5914 5914 5914 5914 5914 5915 5914 5914 5914 5914 5913 5913
5916 5916 5915 5914 5913 5912 5911 5910 5909 5909 5908 5907 5907 5906 5906 5905 5905 5906 5906 5907 5907 5907 5907 5908 5908 5909 5910 5910 5911 5911 5912 5912 5912 5912 5913 5913 5913 5912 5912 5912 5912 5911 5911
5914 5914 5913 5913 5912 5911 5910 5909 5908 5907 5906 5906 5905 5905 5904 5904 5904 5904 5904 5905 5905 5905 5905 5906 5906 5907 5908 5908 5909 5909 5910 5910 5910 5910 5910 5910 5910 5910 5910 5910 5909 5909 5909
5912 5912 5911 5911 5910 5909 5908 5907 5906 5905 5905 5904 5903 5903 5902 5902 5902 5902 5902 5902 5903 5903 5903 5903 5904 5905 5905 5906 5906 5907 5907 5907 5907 5908 5908 5907 5907 5907 5907 5907 5906 5906 5905
5909 5909 5909 5908 5907 5906 5905 5905 5904 5903 5902 5902 5901 5901 5900 5900 5899 5899 5899 5900 5900 5900 5900 5901 5901 5902 5903 5903 5904 5904 5904 5904 5905 5904 5904 5904 5904 5904 5903 5903 5903 5902 5902
5906 5906 5906 5905 5904 5904 5903 5902 5901 5901 5900 5899 5899 5898 5898 5897 5896 5896 5896 5896 5897 5898 5898 5898 5899 5899 5900 5900 5901 5901 5901 5901 5901 5901 5901 5901 5900 5900 5899 5899 5899 5898 5898
5903 5903 5903 5902 5902 5901 5900 5899 5899 5898 5897 5897 5896 5896 5895 5894 5893 5893 5893 5893 5894 5895 5895 5896 5896 5896 5896 5897 5897 5897 5898 5898 5898 5897 5897 5897 5896 5896 5895 5895 5894 5894 5893
5899 5900 5899 5899 5899 5898 5897 5897 5896 5895 5895 5894 5893 5893 5892 5892 5891 5891 5891 5891 5891 5892 5892 5893 5893 5893 5893 5893 5894 5894 5894 5894 5894 5893 5893 5893 5892 5891 5891 5890 5890 5889 5888
5895 5896 5896 5896 5896 5895 5895 5894 5893 5892 5891 5891 5891 5890 5890 5890 5889 5889 5888 5888 5889 5889 5889 5890 5890 5890 5890 5890 5890 5890 5890 5890 5889 5889 5889 5888 5887 5887 5886 5885 5884 5884 5883
5891 5891 5892 5892 5892 5892 5892 5891 5890 5889 5889 5888 5888 5888 5888 5887 5886 5886 5885 5885 5885 5886 5886 5886 5886 5886 5886 5886 5886 5886 5886 5885 5885 5884 5884 5883 5882 5881 5880 5880 5879 5878 5877
5887 5887 5888 5888 5888 5888 5888 5887 5886 5886 5885 5884 5885 5885 5885 5884 5883 5883 5882 5882 5882 5882 5882 5883 5882 5882 5882 5882 5882 5882 5881 5881 5880 5879 5878 5877 5876 5875 5874 5873 5873 5872 5871
5883 5883 5884 5884 5885 5884 5884 5883 5882 5882 5881 5881 5881 5881 5881 5881 5880 5879 5879 5878 5878 5878 5878 5879 5878 5878 5879 5878 5878 5877 5877 5876 5875 5874 5873 5872 5871 5870 5869 5867 5867 5866 5865
5878 5879 5880 5880 5880 5880 5880 5879 5878 5878 5878 5878 5878 5878 5878 5877 5876 5876 5876 5875 5875 5875 5875 5875 5875 5875 5874 5874 5873 5873 5872 5871 5870 5869 5868 5867 5865 5864 5863 5862 5861 5860 5859
5874 5875 5876 5876 5876 5876 5875 5875 5875 5875 5875 5875 5875 5874 5874 5874 5873 5872 5872 5872 5871 5871 5870 5871 5871 5870 5870 5869 5868 5868 5867 5866 5865 5864 5863 5861 5860 5859 5857 5856 5855 5854 5852
5870 5871 5872 5872 5872 5872 5871 5871 5872 5872 5872 5872 5872 5872 5871 5871 5870 5869 5868 5868 5867 5867 5867 5867 5866 5866 5866 5865 5864 5863 5862 5861 5860 5859 5857 5856 5855 5853 5852 5851 5849 5847 5846
5866 5867 5868 5869 5869 5868 5868 5868 5868 5868 5869 5869 5869 5868 5868 5868 5867 5866 5865 5864 5864 5863 5863 5863 5862 5862 5861 5860 5859 5858 5857 5856 5855 5854 5852 5851 5849 5848 5846 5845 5843 5841 5839
5862 5863 5864 5865 5865 5865 5865 5865 5865 5865 5865 5865 5865 5865 5864 5864 5863 5862 5862 5861 5860 5859 5859 5858 5857 5857 5856 5855 5854 5853 5851 5850 5849 5848 5846 5845 5843 5842 5840 5838 5836 5834 5832
5858 5859 5860 5861 5862 5862 5862 5862 5862 5862 5862 5862 5861 5861 5860 5860 5859 5858 5858 5857 5857 5856 5855 5853 5853 5852 5851 5850 5849 5847 5846 5844 5843 5842 5841 5839 5837 5835 5834 5832 5830 5828 5825
5854 5855 5856 5857 5857 5858 5858 5858 5858 5858 5858 5858 5858 5857 5856 5856 5855 5855 5854 5853 5852 5852 5850 5849 5848 5847 5846 5845 5844 5843 5841 5839 5838 5836 5835 5833 5831 5829 5827 5825 5823 5821 5818
5850 5851 5853 5854 5854 5855 5854 5854 5855 5855 5855 5854 5854 5854 5853 5852 5852 5851 5850 5849 5848 5847 5846 5844 5843 5842 5841 5840 5839 5837 5836 5834 5832 5830 5829 5827 5825 5823 5821 5818 5816 5813 5811
5845 5847 5848 5849 5850 5850 5850 5851 5851 5851 5850 5850 5850 5850 5849 5849 5848 5847 5846 5845 5844 5842 5841 5840 5839 5837 5836 5834 5833 5832 5830 5828 5826 5824 5822 5820 5818 5816 5814 5811 5809 5806 5803
5840 5842 5843 5844 5845 5845 5846 5847 5846 5846 5846 5846 5846 5846 5845 5844 5844 5843 5842 5840 5839 5838 5837 5835 5834 5832 5830 5829 5827 5825 5823 5821 5820 5818 5816 5814 5812 5809 5807 5804 5801 5798 5795
5835 5837 5838 5839 5840 5840 5841 5841 5842 5842 5842 5842 5842 5841 5841 5840 5839 5838 5837 5836 5834 5833 5831 5830 5828 5826 5825 5823 5821 5819 5817 5815 5813 5811 5809 5807 5804 5802 5799 5796 5793 5790 5787
5830 5831 5832 5833 5834 5835 5836 5836 5837 5837 5837 5837 5836 5836 5835 5835 5834 5833 5832 5831 5829 5828 5826 5824 5822 5821 5819 5817 5815 5813 5811 5809 5807 5804 5802 5800 5797 5794 5791 5788 5785 5782 5778
5824 5825 5826 5827 5828 5829 5830 5831 5831 5832 5832 5831 5831 5830 5830 5829 5828 5827 5826 5824 5823 5822 5820 5818 5817 5814 5813 5811 5809 5807 5804 5802 5800 5798 5795 5792 5790 5787 5784 5780 5777 5773 5770